| time (UTC) | temp C | wind direction | speed KPH | gust KPH | rain 1hr cm | rain 24hr cm | rain mn cm | humidity % | barometer mb |
| 20260904194605 | 26 | 177 | 8.0 | 14.5 | 0.00 | 0.00 | 0.00 | 70 | 1013.2 |
| 20260904193053 | 25 | 190 | 6.4 | 14.5 | 0.00 | 0.00 | 0.00 | 70 | 1013.3 |
| 20260904191651 | 25 | 209 | 8.0 | 16.1 | 0.00 | 0.00 | 0.00 | 71 | 1013.6 |
| 20260904190049 | 25 | 244 | 6.4 | 16.1 | 0.00 | 0.00 | 0.00 | 71 | 1013.7 |
| 20260904184548 | 25 | 208 | 8.0 | 16.1 | 0.00 | 0.00 | 0.00 | 69 | 1013.9 |
| 20260904183047 | 25 | 228 | 6.4 | 16.1 | 0.00 | 0.00 | 0.00 | 70 | 1013.9 |
| 20260904181546 | 25 | 180 | 9.7 | 16.1 | 0.00 | 0.00 | 0.00 | 70 | 1014.0 |
| 20260904180047 | 25 | 184 | 9.7 | 16.1 | 0.00 | 0.00 | 0.00 | 69 | 1013.9 |
| 20260904174547 | 25 | 210 | 6.4 | 16.1 | 0.00 | 0.00 | 0.00 | 71 | 1014.1 |
| 20260904173056 | 25 | 175 | 9.7 | 16.1 | 0.00 | 0.00 | 0.00 | 70 | 1014.0 |
| 20260904171543 | 24 | 194 | 8.0 | 14.5 | 0.00 | 0.00 | 0.00 | 71 | 1013.9 |
| 20260904170039 | 24 | 239 | 6.4 | 14.5 | 0.00 | 0.00 | 0.00 | 73 | 1013.8 |
| 20260904164537 | 24 | 206 | 4.8 | 9.7 | 0.00 | 0.00 | 0.00 | 71 | 1013.5 |
| 20260904163034 | 24 | 205 | 3.2 | 9.7 | 0.00 | 0.00 | 0.00 | 72 | 1013.4 |
| 20260904161535 | 24 | 157 | 1.6 | 11.3 | 0.00 | 0.00 | 0.00 | 71 | 1013.3 |
| 20260904160032 | 24 | 150 | 0.0 | 4.8 | 0.00 | 0.00 | 0.00 | 72 | 1013.2 |
| 20260904154525 | 23 | 155 | 0.0 | 6.4 | 0.00 | 0.00 | 0.00 | 74 | 1013.1 |
| 20260904153021 | 22 | 145 | 1.6 | 9.7 | 0.00 | 0.00 | 0.00 | 76 | 1013.2 |
| 20260904151518 | 22 | 117 | 0.0 | 6.4 | 0.00 | 0.00 | 0.00 | 77 | 1013.1 |
| 20260904150026 | 21 | 110 | 1.6 | 6.4 | 0.00 | 0.00 | 0.00 | 81 | 1013.0 |
| 20260904144510 | 20 | 105 | 3.2 | 9.7 | 0.00 | 0.00 | 0.00 | 85 | 1013.0 |
| 20260904143006 | 18 | 107 | 1.6 | 9.7 | 0.00 | 0.00 | 0.00 | 90 | 1013.0 |
| 20260904141502 | 18 | 98 | 1.6 | 6.4 | 0.00 | 0.00 | 0.00 | 90 | 1012.8 |
| 20260904140105 | 18 | 269 | 0.0 | 4.8 | 0.00 | 0.00 | 0.00 | 91 | 1012.6 |
| 20260904134613 | 18 | 269 | 0.0 | 0.0 | 0.00 | 0.00 | 0.00 | 91 | 1012.5 |
| 20260904133058 | 17 | 269 | 0.0 | 0.0 | 0.00 | 0.00 | 0.00 | 91 | 1012.4 |
| 20260904131558 | 18 | 269 | 0.0 | 0.0 | 0.00 | 0.00 | 0.00 | 91 | 1012.4 |
| 20260904130056 | 18 | 269 | 0.0 | 0.0 | 0.00 | 0.00 | 0.00 | 91 | 1012.3 |
| 20260904124555 | 18 | 269 | 0.0 | 0.0 | 0.00 | 0.00 | 0.00 | 91 | 1012.3 |
| 20260904123054 | 18 | 269 | 0.0 | 0.0 | 0.00 | 0.00 | 0.00 | 91 | 1012.2 |
| 20260904121554 | 18 | 269 | 0.0 | 0.0 | 0.00 | 0.00 | 0.00 | 91 | 1012.1 |
| 20260904120104 | 18 | 269 | 0.0 | 0.0 | 0.00 | 0.00 | 0.00 | 91 | 1012.0 |
| 20260904114554 | 18 | 269 | 0.0 | 0.0 | 0.00 | 0.00 | 0.00 | 91 | 1012.1 |
| 20260904113052 | 18 | 269 | 0.0 | 0.0 | 0.00 | 0.00 | 0.00 | 91 | 1012.1 |
| 20260904111551 | 18 | 269 | 0.0 | 0.0 | 0.00 | 0.00 | 0.00 | 91 | 1012.0 |
| 20260904110051 | 18 | 269 | 0.0 | 4.8 | 0.00 | 0.00 | 0.00 | 92 | 1012.1 |
| 20260904104550 | 18 | 269 | 0.0 | 3.2 | 0.00 | 0.00 | 0.00 | 91 | 1012.1 |
| 20260904103048 | 18 | 269 | 0.0 | 0.0 | 0.00 | 0.00 | 0.00 | 91 | 1011.9 |
| 20260904101547 | 18 | 269 | 0.0 | 0.0 | 0.00 | 0.00 | 0.00 | 91 | 1011.9 |
| 20260904100050 | 18 | 269 | 0.0 | 0.0 | 0.00 | 0.00 | 0.00 | 91 | 1011.9 |
| 20260904094551 | 18 | 269 | 0.0 | 0.0 | 0.00 | 0.00 | 0.00 | 91 | 1012.0 |
| 20260904093047 | 18 | 269 | 0.0 | 6.4 | 0.00 | 0.00 | 0.00 | 92 | 1012.0 |
| 20260904091544 | 18 | 269 | 0.0 | 0.0 | 0.00 | 0.00 | 0.00 | 92 | 1011.9 |
| 20260904090044 | 18 | 269 | 0.0 | 0.0 | 0.00 | 0.00 | 0.00 | 92 | 1012.0 |
| 20260904084543 | 18 | 269 | 0.0 | 0.0 | 0.00 | 0.00 | 0.00 | 92 | 1012.0 |
| 20260904083046 | 18 | 269 | 0.0 | 0.0 | 0.00 | 0.00 | 0.00 | 92 | 1012.2 |
| 20260904081541 | 18 | 269 | 0.0 | 0.0 | 0.00 | 0.00 | 0.00 | 91 | 1012.2 |
| 20260904080041 | 18 | 269 | 0.0 | 0.0 | 0.00 | 0.00 | 0.00 | 91 | 1012.2 |
| 20260904074539 | 18 | 269 | 0.0 | 0.0 | 0.00 | 0.00 | 0.00 | 90 | 1012.2 |
| 20260904073038 | 18 | 269 | 0.0 | 0.0 | 0.00 | 0.00 | 0.00 | 90 | 1012.2 |
| 20260904071536 | 18 | 269 | 0.0 | 0.0 | 0.00 | 0.00 | 0.00 | 89 | 1012.1 |
| 20260904070034 | 18 | 269 | 0.0 | 0.0 | 0.00 | 0.00 | 0.00 | 89 | 1012.0 |
| 20260904064535 | 18 | 269 | 0.0 | 0.0 | 0.00 | 0.00 | 0.00 | 87 | 1012.1 |
| 20260904063036 | 18 | 269 | 0.0 | 0.0 | 0.00 | 0.00 | 0.00 | 86 | 1012.0 |
| 20260904061532 | 19 | 269 | 0.0 | 0.0 | 0.00 | 0.00 | 0.00 | 86 | 1012.0 |
| 20260904060032 | 20 | 269 | 0.0 | 0.0 | 0.00 | 0.00 | 0.00 | 85 | 1012.0 |
| 20260904054531 | 20 | 269 | 0.0 | 0.0 | 0.00 | 0.00 | 0.00 | 86 | 1011.9 |
| 20260904053031 | 20 | 269 | 0.0 | 6.4 | 0.00 | 0.00 | 0.00 | 86 | 1012.0 |
| 20260904051529 | 20 | 269 | 4.8 | 9.7 | 0.00 | 0.00 | 0.00 | 86 | 1012.2 |
| 20260904050030 | 20 | 269 | 0.0 | 0.0 | 0.00 | 0.00 | 0.00 | 86 | 1012.2 |
| 20260904044532 | 20 | 269 | 0.0 | 0.0 | 0.00 | 0.00 | 0.00 | 86 | 1012.0 |
| 20260904043029 | 20 | 269 | 0.0 | 0.0 | 0.00 | 0.00 | 0.00 | 85 | 1011.9 |
| 20260904041528 | 20 | 269 | 0.0 | 0.0 | 0.00 | 0.00 | 0.00 | 85 | 1011.8 |
| 20260904040028 | 21 | 269 | 0.0 | 6.4 | 0.00 | 0.00 | 0.00 | 85 | 1011.8 |
| 20260904034534 | 21 | 272 | 4.8 | 11.3 | 0.00 | 0.00 | 0.00 | 86 | 1011.6 |
| 20260904033027 | 21 | 285 | 0.0 | 11.3 | 0.00 | 0.00 | 0.00 | 85 | 1011.5 |
| 20260904031526 | 21 | 275 | 6.4 | 14.5 | 0.00 | 0.00 | 0.00 | 84 | 1011.3 |
| 20260904030026 | 21 | 275 | 9.7 | 17.7 | 0.00 | 0.00 | 0.00 | 84 | 1011.2 |
| 20260904024526 | 21 | 282 | 9.7 | 17.7 | 0.00 | 0.00 | 0.00 | 83 | 1011.2 |
| 20260904023025 | 21 | 255 | 9.7 | 19.3 | 0.00 | 0.00 | 0.00 | 83 | 1011.3 |
| 20260904021527 | 21 | 284 | 11.3 | 20.9 | 0.00 | 0.00 | 0.00 | 82 | 1011.3 |
| 20260904020020 | 21 | 274 | 9.7 | 19.3 | 0.00 | 0.00 | 0.00 | 81 | 1011.4 |
| 20260904014518 | 22 | 263 | 9.7 | 20.9 | 0.00 | 0.00 | 0.00 | 80 | 1011.4 |
| 20260904013016 | 22 | 236 | 11.3 | 20.9 | 0.00 | 0.00 | 0.00 | 79 | 1011.5 |
| 20260904011518 | 22 | 259 | 8.0 | 22.5 | 0.00 | 0.00 | 0.00 | 78 | 1011.6 |
| 20260904010016 | 23 | 259 | 11.3 | 19.3 | 0.00 | 0.00 | 0.00 | 76 | 1011.5 |
| 20260904004510 | 23 | 263 | 9.7 | 19.3 | 0.00 | 0.00 | 0.00 | 75 | 1011.5 |
| 20260904003012 | 24 | 259 | 11.3 | 22.5 | 0.00 | 0.00 | 0.00 | 75 | 1011.6 |
| 20260904001506 | 24 | 239 | 11.3 | 25.7 | 0.00 | 0.00 | 0.00 | 75 | 1011.5 |
| 20260904000006 | 24 | 284 | 12.9 | 22.5 | 0.00 | 0.00 | 0.00 | 75 | 1011.6 |
| 20260903234504 | 25 | 246 | 11.3 | 22.5 | 0.00 | 0.00 | 0.00 | 74 | 1011.7 |
| 20260903233002 | 25 | 272 | 9.7 | 19.3 | 0.00 | 0.00 | 0.00 | 74 | 1011.9 |
| 20260903231502 | 25 | 229 | 9.7 | 19.3 | 0.00 | 0.00 | 0.00 | 74 | 1011.9 |
| 20260903224615 | 26 | 265 | 12.9 | 22.5 | 0.00 | 0.00 | 0.00 | 72 | 1012.1 |
| 20260903223058 | 26 | 236 | 9.7 | 17.7 | 0.00 | 0.00 | 0.00 | 72 | 1012.2 |
| 20260903221556 | 26 | 248 | 8.0 | 20.9 | 0.00 | 0.00 | 0.00 | 72 | 1012.4 |
| 20260903220055 | 26 | 236 | 6.4 | 17.7 | 0.00 | 0.00 | 0.00 | 71 | 1012.4 |
| 20260903214607 | 26 | 200 | 6.4 | 20.9 | 0.00 | 0.00 | 0.00 | 72 | 1012.6 |
| 20260903213100 | 26 | 218 | 9.7 | 22.5 | 0.00 | 0.00 | 0.00 | 72 | 1012.7 |
| 20260903211547 | 25 | 238 | 8.0 | 20.9 | 0.00 | 0.00 | 0.00 | 74 | 1012.7 |
| 20260903210118 | 26 | 238 | 8.0 | 22.5 | 0.00 | 0.00 | 0.00 | 74 | 1012.6 |
| 20260903204549 | 25 | 259 | 11.3 | 20.9 | 0.00 | 0.00 | 0.00 | 73 | 1012.8 |
| 20260903203103 | 25 | 196 | 8.0 | 20.9 | 0.00 | 0.00 | 0.00 | 74 | 1013.0 |
| 20260903201544 | 26 | 194 | 6.4 | 16.1 | 0.00 | 0.00 | 0.00 | 73 | 1013.1 |
| 20260903200045 | 25 | 236 | 9.7 | 20.9 | 0.00 | 0.00 | 0.00 | 74 | 1013.3 |